Edinburgh Airport, United Kingdom

12:38 AM BST on March 27, 2017 (GMT +0100)
Edinburgh Airport

Weather History for EGPH - September, 2013

Change the Weather History Date:

Friday, September 6, 2013

  Actual Average Record
Temperature  
Mean Temperature 52 °F -  
Max Temperature 57 °F 60 °F 73 °F (1999)
Min Temperature 46 °F 46 °F 41 °F (2015)
Degree Days  
Heating Degree Days 14    
Growing Degree Days 2 (Base 50)    
Moisture  
Dew Point 46 °F    
Average Humidity 84    
Maximum Humidity 100    
Minimum Humidity 63    
Precipitation  
Precipitation 0.00 in 0.09 in - ()
Sea Level Pressure  
Sea Level Pressure 29.90 in    
Wind  
Wind Speed 6 mph ()    
Max Wind Speed 15 mph    
Max Gust Speed -    
Visibility 6.0 miles    
Events Rain    
Averages and records for this station are not official NWS values.
T = Trace of Precipitation, MM = Missing Value Source: Averaged Metar Reports

Daily Weather History Graph

Daily Weather History Graph

Search for Another Location

Airport or City:

Trip Planner

Search our weather history database for the weather conditions in past years. The results will help you decide how hot, cold, wet, or windy it might be!

Date:

Astronomy

Sep. 06, 2013 Rise Set
Actual Time 6:27 AM BST 7:54 PM BST
Civil Twilight 5:49 AM BST 8:32 PM BST
Nautical Twilight 5:01 AM BST 9:20 PM BST
Astronomical Twilight 4:07 AM BST 10:13 PM BST
Moon 7:45 AM BST (9/6) 7:45 PM BST (9/6)
Length of Visible Light 14h 43m
Length of Day
13h 26m
New Moon, 1% of the Moon is Illuminated
Sep 6
New Moon
Sep 12
First Quarter
Sep 19
Full
Sep 27
Last Quarter
Oct 5
New

Hourly Weather History & Observations

Time (BST) Temp. Windchill Dew Point Humidity Pressure Visibility Wind Dir Wind Speed Gust Speed Precip Events Conditions
12:20 AM 46.4 °F 45.2 °F 42.8 °F 87% 29.89 in 6.2 mi West 3.5 mph - N/A   Partly Cloudy
12:50 AM 46.4 °F 44.3 °F 42.8 °F 87% 29.89 in 6.2 mi WSW 4.6 mph - N/A   Partly Cloudy
1:20 AM 48.2 °F - 42.8 °F 82% 29.89 in - West 4.6 mph - N/A   Clear
1:50 AM 48.2 °F - 42.8 °F 82% 29.89 in 6.2 mi WSW 5.8 mph - N/A   Mostly Cloudy
2:20 AM 48.2 °F - 42.8 °F 82% 29.89 in 6.2 mi WSW 4.6 mph - N/A   Mostly Cloudy
2:50 AM 48.2 °F - 42.8 °F 82% 29.89 in 6.2 mi WSW 3.5 mph - N/A   Overcast
3:20 AM 48.2 °F - 44.6 °F 87% 29.89 in 6.2 mi WSW 2.3 mph - N/A   Mostly Cloudy
3:50 AM 48.2 °F - 44.6 °F 87% 29.89 in 6.2 mi WSW 3.5 mph - N/A   Mostly Cloudy
4:20 AM 48.2 °F - 44.6 °F 87% 29.89 in 6.2 mi West 3.5 mph - N/A   Mostly Cloudy
4:50 AM 48.2 °F - 44.6 °F 87% 29.89 in - WSW 2.3 mph - N/A   Clear
5:20 AM 48.2 °F - 44.6 °F 87% 29.89 in - WSW 3.5 mph - N/A   Clear
5:50 AM 48.2 °F - 44.6 °F 87% 29.89 in - West 2.3 mph - N/A   Clear
6:20 AM 48.2 °F - 44.6 °F 87% 29.89 in - WSW 2.3 mph - N/A   Clear
6:50 AM 48.2 °F - 46.4 °F 93% 29.89 in 6.2 mi Calm Calm - N/A Rain Rain
7:20 AM 48.2 °F - 46.4 °F 93% 29.89 in 6.2 mi Variable 2.3 mph - N/A   Partly Cloudy
7:50 AM 48.2 °F - 46.4 °F 93% 29.89 in 6.2 mi Variable 2.3 mph - N/A   Partly Cloudy
8:20 AM 48.2 °F - 46.4 °F 93% 29.89 in 6.2 mi Variable 3.5 mph - N/A Rain Light Rain
8:50 AM 51.8 °F - 46.4 °F 82% 29.92 in 6.2 mi NE 6.9 mph - N/A Rain Light Rain
9:20 AM 51.8 °F - 46.4 °F 82% 29.92 in 6.2 mi NE 6.9 mph - N/A   Partly Cloudy
9:50 AM 53.6 °F - 46.4 °F 77% 29.92 in 6.2 mi NE 8.1 mph - N/A Rain Light Rain
10:20 AM 53.6 °F - 46.4 °F 77% 29.92 in 6.2 mi NNE 8.1 mph - N/A   Partly Cloudy
10:50 AM 53.6 °F - 46.4 °F 77% 29.92 in 6.2 mi NNE 8.1 mph - N/A Rain Light Rain
11:20 AM 53.6 °F - 46.4 °F 77% 29.92 in 6.2 mi NE 9.2 mph - N/A   Scattered Clouds
11:50 AM 53.6 °F - 46.4 °F 77% 29.92 in 6.2 mi NNE 8.1 mph - N/A   Scattered Clouds
12:20 PM 55.4 °F - 46.4 °F 72% 29.92 in 6.2 mi NNE 9.2 mph - N/A   Scattered Clouds
12:50 PM 55.4 °F - 46.4 °F 72% 29.92 in 6.2 mi NNE 10.4 mph - N/A   Scattered Clouds
1:20 PM 57.2 °F - 46.4 °F 67% 29.92 in 6.2 mi NE 13.8 mph - N/A   Mostly Cloudy
1:50 PM 57.2 °F - 44.6 °F 63% 29.92 in 6.2 mi NE 13.8 mph - N/A   Scattered Clouds
2:20 PM 55.4 °F - 44.6 °F 67% 29.89 in 6.2 mi ENE 15.0 mph - N/A   Mostly Cloudy
2:50 PM 55.4 °F - 44.6 °F 67% 29.92 in 6.2 mi ENE 12.7 mph - N/A   Scattered Clouds
3:20 PM 53.6 °F - 48.2 °F 82% 29.92 in 6.2 mi ENE 12.7 mph - N/A Rain Light Rain
3:50 PM 53.6 °F - 50.0 °F 88% 29.92 in 6.2 mi ENE 12.7 mph - N/A Rain Light Rain
4:20 PM 53.6 °F - 50.0 °F 88% 29.92 in 6.2 mi ENE 15.0 mph - N/A Rain Light Rain
4:50 PM 53.6 °F - 48.2 °F 82% 29.89 in 6.2 mi NE 12.7 mph - N/A Rain Light Rain
5:20 PM 53.6 °F - 46.4 °F 77% 29.89 in 6.2 mi NE 15.0 mph - N/A Rain Light Rain
5:50 PM 53.6 °F - 48.2 °F 82% 29.92 in 6.2 mi ENE 11.5 mph - N/A Rain Light Rain
6:20 PM 51.8 °F - 48.2 °F 88% 29.92 in 6.2 mi ENE 13.8 mph - N/A Rain Light Rain
6:50 PM 51.8 °F - 48.2 °F 88% 29.89 in 5.0 mi NE 11.5 mph - N/A Rain Light Rain
7:20 PM 51.8 °F - 48.2 °F 88% 29.89 in 5.0 mi NE 5.8 mph - N/A Rain Rain
7:50 PM 50.0 °F - 48.2 °F 94% 29.89 in 3.7 mi NNE 8.1 mph - N/A Rain Rain
8:20 PM 50.0 °F - 46.4 °F 87% 29.92 in 6.2 mi NE 11.5 mph - N/A Rain Light Rain
8:50 PM 48.2 °F - 44.6 °F 87% 29.92 in 5.6 mi North 9.2 mph - N/A Rain Rain
9:20 PM 48.2 °F - 44.6 °F 87% 29.92 in 6.2 mi Variable 3.5 mph - N/A Rain Light Rain
9:50 PM 48.2 °F - 44.6 °F 87% 29.92 in 5.6 mi Variable 2.3 mph - N/A Rain Rain
10:20 PM 46.4 °F - 46.4 °F 100% 29.92 in 5.6 mi Variable 2.3 mph - N/A Rain Rain
10:50 PM 46.4 °F 44.3 °F 46.4 °F 100% 29.92 in 5.0 mi NNW 4.6 mph - N/A Rain Rain
11:20 PM 48.2 °F - 46.4 °F 93% 29.89 in 6.2 mi NW 4.6 mph - N/A Rain Light Rain
11:50 PM 48.2 °F - 46.4 °F 93% 29.89 in 5.6 mi NNW 5.8 mph - N/A Rain Light Rain